Regional Weather Roundup
Issued by NWS

Home | Current Version | Previous Version | Text Only | Print | Product List | Glossary Off
Versions: 1 2 3 4 5 6 7 8 9 10 11 12 13 14 15 16 17 18 19 20 21 22 23 24 25 26 27 28 29 30 31 32 33 34 35 36 37 38 39 40 41 42 43 44 45 46 47 48 49 50

000
ASUS45 KBOU 210710
RWRCO

WEATHER ROUNDUP FOR COLORADO
NATIONAL WEATHER SERVICE DENVER/BOULDER CO
100 AM MDT SAT APR 21 2018

NOTE: "FAIR" INDICATES FEW OR NO CLOUDS BELOW 12000 FEET WITH NO
SIGNIFICANT WEATHER AND/OR OBSTRUCTIONS TO VISIBILITY.

COZ001>005-013-030-031-210800-
...NORTHWEST COLORADO...

CITY           SKY/WX    TMP DP  RH WIND       PRES   REMARKS
CRAIG          CLOUDY    38  34  85 W5        30.05R
HAYDEN         CLOUDY    33  31  92 CALM      30.05R
MEEKER         FLURRIES  34  32  92 W6        30.05R WCI  29
RANGELY        DRIZZLE   40  38  96 CALM      30.10R
RABBIT EARS PA LGT SNOW  27  25  93 MISG      30.05R
STEAMBOAT SPGS CLOUDY    32  32 100 CALM      30.03R
WALDEN         CLOUDY    30  25  80 N7        30.07R WCI  23
$$

COZ006>008-011-210800-
...WEST CENTRAL VALLEYS...

CITY           SKY/WX    TMP DP  RH WIND       PRES   REMARKS
GRAND JUNCTION CLOUDY    42  39  89 SE5       30.07R
MONTROSE       LGT RAIN  37  34  89 S10       30.10S
EAGLE          LGT SNOW  32  30  92 E5        30.07R FOG     WCI  27
RIFLE          LGT SNOW  35  33  92 E3        30.07R FOG
DELTA          LGT RAIN  41  38  89 CALM      30.09S
NUCLA          LGT RAIN  37  34  87 E5        30.14R
$$

COZ017>023-064>068-210800-
...SOUTHWEST COLORADO...

CITY           SKY/WX    TMP DP  RH WIND       PRES   REMARKS
DURANGO        MOCLDY    38  26  62 W5        30.06R
CORTEZ         CLOUDY    38  28  67 CALM      30.10R
PAGOSA SPRINGS FAIR      30  22  73 CALM      30.07S
TELLURIDE      LGT SNOW  29  28  98 CALM      30.12S
WOLF CREEK PAS CLOUDY    16  14  93 SW9       30.13S WCI   4
$$

COZ009-010-012-014-032>034-037-058>063-210800-
...CENTRAL COLORADO...

CITY           SKY/WX    TMP DP  RH WIND       PRES   REMARKS
ASPEN          LGT SNOW  31  30  96 CALM      30.03S FOG
BUENA VISTA    CLOUDY    31  29  93 S3        30.03S
COPPER MTN     NOT AVBL
BERTHOUD PASS  CLOUDY    18   7  62 SW7       30.07R WCI   8
COTTONWOOD PAS CLOUDY    32  28  86 W6        30.04R WCI  26
GUNNISON       LGT SNOW  31  29  92 SW5       30.07R FOG     WCI  26
GRANBY         LGT SNOW  31  31  99 CALM      30.04R VSB 1
KREMMLING      LGT SNOW  36  34  93 SW5       30.04S
LEADVILLE      LGT SNOW  24  22  91 N5        30.03S FOG     WCI  18
MONARCH PASS   CLOUDY    19  16  86 W24       30.14F WCI   2
SALIDA         CLOUDY    33  32  95 CALM      30.12R
SUNLIGHT       LGT SNOW  23  21  93 MISG      30.09S VSB 1
WILKERSON PASS FOG      N/A N/A N/A CALM      30.07R VSB 1/2
$$

COZ069>075-210800-
...SAN LUIS VALLEY/SANGRE DE CRISTO MOUNTAINS...

CITY           SKY/WX    TMP DP  RH WIND       PRES   REMARKS
ALAMOSA        CLOUDY    28  24  85 SW3       30.04S
DEL NORTE      CLOUDY    32  24  72 SW5       30.05S WCI  27
LA VETA PASS   FAIR      23  19  86 SW15G21   30.13F WCI  10
SAGUACHE       NOT AVBL
$$

COZ035-036-038>040-210800-
...NORTHERN COLORADO FRONT RANGE...

CITY           SKY/WX    TMP DP  RH WIND       PRES   REMARKS
DENVER INTL AP LGT SNOW  33  33 100 E5        30.08R FOG     WCI  29
AURORA         FLURRIES  35  35  99 S3        30.07R
FRONT RANGE AP LGT SNOW  35  34  96 E5        30.09R WCI  31
ERIE MUNI ARPT LGT SNOW  33  32  99 N5        30.16R VSB 1   WCI  28
BOULDER MUN AP LGT SNOW  32  32 100 N6        30.10R WCI  26
CENTENNIAL     FLURRIES  35  33  92 S6        30.06R WCI  30
BROOMFIELD     LGT SNOW  32  32 100 N8        30.09R WCI  25
FORT COLLINS   LGT SNOW  32  31  96 NE7       30.14R FOG     WCI  26
LONGMONT       LGT SNOW  35  33  93 N7        30.14R WCI  29
$$

COZ041-046-047-076>085-087-088-210800-
...PIKES PEAK/PALMER DIVIDE AND SOUTHERN FOOTHILLS...

CITY           SKY/WX    TMP DP  RH WIND       PRES   REMARKS
COLO. SPRINGS  FOG       32  31  96 CALM      30.05F VSB 1/4
A. F. ACADEMY  CLOUDY    32  32 100 CALM      30.05S
SCHRIEVER AFB  NOT AVBL
CHEYENNE MTN   LGT RAIN  30  30 100 CALM      29.99F VSB 3/4
ELLICOTT         N/A    N/A N/A N/A SE8       30.04S
FALCON         SNOW      31  31 100 E5        30.07S VSB 1/2 WCI  27
FORT CARSON    LGT SNOW  32  32  99 CALM      30.04F
LIMON          LGT SNOW  32  32 100 NE8       30.08S FOG     WCI  25
MONUMENT HILL  FLURRIES  30  30 100 S8        30.06S WCI  23
CANON CITY     LGT RAIN  34  34 100 SW5       30.05  WCI  30
WALSENBURG     NOT AVBL
TRINIDAD       CLOUDY    36  34  92 NW8       30.01F
$$

COZ042>045-048>051-090-091-210800-
...NORTHEAST COLORADO...

CITY           SKY/WX    TMP DP  RH WIND       PRES   REMARKS
GREELEY ARPT   LGT RAIN  34  33  96 E9        30.15R WCI  27
AKRON          LGT SNOW  34  34 100 E16G25    30.12S FOG     WCI  24
BURLINGTON     LGT RAIN  38  37  97 SE15      30.11R FOG
WRAY           LGT RAIN  37  37 100 E13       30.17S
YUMA           DRIZZLE   36  34  93 E12       30.15S
STERLING       NOT AVBL
HOLYOKE        LGT RAIN  41  37  87 SE16G23   30.20R
FORT MORGAN    LGT RAIN  35  33  95 E10       30.15S WCI  27
$$

COZ086-089-092>099-210800-
...SOUTHEAST COLORADO...

CITY           SKY/WX    TMP DP  RH WIND       PRES   REMARKS
PUEBLO         CLOUDY    42  34  73 E10       30.03F
LA JUNTA       CLOUDY    42  39  89 E8        30.05R
LAMAR          CLOUDY    42  39  89 SE13      30.05S
SPRINGFIELD      N/A     39  39 100 SE12      30.03F
$$



USA.gov is the U.S. government's official web portal to all federal, state and local government web resources and services.